Regional Weather Roundup
Issued by NWS

Home | Current Version | Previous Version | Graphics & Text | Print | Product List | Glossary On
Versions: 1 2 3 4 5 6 7 8 9 10 11 12 13 14 15 16 17 18 19 20 21 22 23 24 25 26 27 28 29 30 31 32 33 34 35 36 37 38 39 40 41 42 43 44 45 46 47 48 49 50
000
ASUS43 KMPX 071101
RWRMN
WEATHER ROUNDUP FOR MINNESOTA
NATIONAL WEATHER SERVICE TWIN CITIES/CHANHASSEN MN
500 AM CST SUN FEB 07 2016


NOTE: "FAIR" INDICATES FEW OR NO CLOUDS BELOW 12,000 FEET WITH NO
SIGNIFICANT WEATHER AND/OR OBSTRUCTIONS TO VISIBILITY. N/A MEANS
CURRENT SKY AND/OR WEATHER CONDITIONS ARE NOT AVAILABLE.

MNZ060>063-068>070-071200-
   Twin Cities Metro

CITY           SKY/WX    TMP DP  RH WIND       PRES   REMARKS
TWIN CITIES    MOCLDY    33  27  78 SW7       29.64S WCI  27
ST PAUL        PTCLDY    30  26  85 CALM      29.65F
CRYSTAL        CLOUDY    36  29  75 W10       29.61F
BLAINE         MOCLDY    36  30  80 SW7       29.61F
LAKEVILLE      CLEAR     34  28  80 W13       29.65S WCI  25
EDEN PRAIRIE   MOCLDY    33  27  78 SW8       29.63F WCI  26
SOUTH ST PAUL  CLEAR     33  28  81 W7        29.64F WCI  27
LAKE ELMO      FAIR      30  28  93 S8        29.64S WCI  23
$$
MNZ001>005-007-008-013>017-022>024-027-028-071200-
   Northwest Minnesota

CITY           SKY/WX    TMP DP  RH WIND       PRES   REMARKS
BEMIDJI        CLOUDY    33  32  98 W12       29.43S FOG     WCI  24
HALLOCK        LGT SNOW  34  32  93 NW7       29.45R WCI  28
ROSEAU         CLOUDY    34  28  80 W20       29.38R WCI  22
WARROAD        CLOUDY    34  30  86 W8        29.37R WCI  27
THIEF RVR FALL CLOUDY    34  30  86 W17       29.47R WCI  23
CROOKSTON      LGT SNOW  34  32  93 NW18      29.51R WCI  23
FOSSTON        LGT SNOW  30  30 100 W21G26    29.48R WCI  17
DETROIT LAKES  LGT SNOW  34  32  93 W21G30    29.54S WCI  22
MOORHEAD       CLOUDY    37  28  70 W25G31    29.58R
PARK RAPIDS    LGT SNOW  34  32  92 W20       29.47S FOG     WCI  23
$$
MNZ006-009>011-018-025>026-071200-
   North Central Minnesota

CITY           SKY/WX    TMP DP  RH WIND       PRES   REMARKS
BAUDETTE       CLOUDY    35  30  82 W5        29.36S WCI  31
FLAG ISLAND    CLOUDY    30  28  93 SW3       29.33S
INTL FALLS     CLOUDY    34  32  92 S6        29.37F WCI  29
WASKISH        LGT RAIN  34  34 100 SW10      29.40R WCI  26
LONGVILLE      FLURRIES  34  32  93 SW9       29.45S WCI  26
GRAND RAPIDS   CLOUDY    34  30  86 SW8       29.43F WCI  27
ORR            FLURRIES  34  30  86 S5        29.39F WCI  30
COOK           CLOUDY    34  32  93 S6        29.43S WCI  29
WALKER         DRIZZLE   33  31  94 W12G20    29.44S WCI  24
$$
MNZ012-019>021-037-071200-
   Northeast Minnesota

CITY           SKY/WX    TMP DP  RH WIND       PRES   REMARKS
DULUTH         PTCLDY    31  28  89 SW13      29.47F WCI  21
ELY            CLOUDY    32  30  93 S7        29.44S WCI  26
HIBBING        LGT SNOW  30  29  96 S5        29.43F FOG     WCI  25
EVELETH        CLOUDY    32  32 100 S8        29.45F WCI  25
DULUTH HARBOR  CLOUDY    34  30  86 S6        29.52F WCI  29
TWO HARBORS    PTCLDY    34  28  80 SW8       29.47F WCI  27
SILVER BAY     CLOUDY    34  30  86 S8        29.48F WCI  27
GRAND MARAIS     N/A     34  32  92 S14       29.53F WCI  25
G MARAIS ARPRT MIX PCPN  28  25  86 S8        29.48F VSB 1/4 WCI  20
$$
MNZ029>031-032-039>041-046>048-054>057-064-071200-
   West Central Minnesota

CITY           SKY/WX    TMP DP  RH WIND       PRES   REMARKS
FERGUS FALLS   CLOUDY    36  32  87 W21       29.62S
WHEATON        PTCLDY    37  28  70 W20G26    29.68R
MORRIS         MOCLDY    37  28  70 W25       29.64R
ALEXANDRIA     FLURRIES  35  29  78 W24G33    29.59S WCI  23
ELBOW LAKE     CLOUDY    35  29  79 NW18G28   29.62S HAZE    WCI  24
WADENA         MIX PCPN  32  30  93 W16G22    29.52S WCI  21
GLENWOOD       CLOUDY    36  28  75 W25G33    29.61R
APPLETON       CLOUDY    37  27  65 W18       29.69R
BENSON         CLOUDY    37  27  65 NW20G25   29.66S
ORTONVILLE     CLOUDY    36  25  64 W15G23    29.70R
MADISON        PTCLDY    37  27  65 W21G26    29.73R
WILLMAR        CLOUDY    37  30  75 W20G26    29.67R
$$
MNZ033>034-036-042>043-049>051-058-059-071200-
   Central Minnesota

CITY           SKY/WX    TMP DP  RH WIND       PRES   REMARKS
ST CLOUD       CLOUDY    37  32  82 W18       29.58F
SAUK CENTRE    FAIR      34  31  89 W20G31    29.58F WCI  23
PAYNESVILLE    CLOUDY    36  31  82 W22G29    29.62S
AITKIN         MIX PCPN  39  30  70 SW12      29.47S
PINE RIVER     RAIN      34  32  93 W9        29.52S WCI  26
BRAINERD       CLOUDY    35  31  85 W17G25    29.50F WCI  25
STAPLES        LGT RAIN  32  32 100 W18G24    29.53R WCI  20
LONG PRAIRIE   CLOUDY    34  32  93 W16G23    29.56F WCI  23
LITTLE FALLS   CLOUDY    36  30  80 W15G23    29.56R
LITCHFIELD     PTCLDY    37  30  75 W13G20    29.64S
BUFFALO        CLOUDY    35  31  84 SW9       29.63S WCI  28
MAPLE LAKE     CLOUDY    39  33  78 SW12      29.62S
$$
MNZ037-044-045-052-053-071200-
   East Central Minnesota

CITY           SKY/WX    TMP DP  RH WIND       PRES   REMARKS
PRINCETON      CLOUDY    36  32  87 SW7       29.57F
MORA           CLOUDY    34  30  86 CALM      29.55F
CAMBRIDGE      CLOUDY    36  27  69 CALM      29.56F
RUSH CITY      CLOUDY    32  29  88 S7        29.57F WCI  26
MOOSE LAKE     FLURRIES  32  30  93 SW8       29.49F WCI  25
HINCKLEY       CLOUDY    34  32  93 S10       29.54F WCI  26
CLOQUET        CLOUDY    32  28  86 S9        29.48F WCI  24
MCGREGOR       CLOUDY    34  32  93 S7        29.48F WCI  28
$$
MNZ071>073-080-081-089-090-097-098-071200-
   Southwest Minnesota

CITY           SKY/WX    TMP DP  RH WIND       PRES   REMARKS
MONTEVIDEO     MOCLDY    37  28  70 NW16G26   29.72R
GRANITE FALLS  CLOUDY    38  30  74 W24       29.74R
CANBY          MOCLDY    39  29  69 NW23G30   29.76R
MARSHALL       PTCLDY    37  25  61 W24G35    29.74R
REDWOOD FALLS  CLOUDY    37  28  70 W22       29.71R
OLIVIA         MOCLDY    36  32  87 W22       29.68S
PIPESTONE      CLEAR     36  21  55 NW17G23   29.79S
WINDOM         CLEAR     34  27  75 W22       29.75R WCI  22
WORTHINGTON    CLEAR     34  25  69 W25       29.79S WCI  21
JACKSON        CLEAR     34  27  75 W22G28    29.76S WCI  22
TRACY          CLEAR     36  28  71 W12G24    29.75S
SLAYTON        CLEAR     32  28  84 W23G30    29.77S WCI  19
$$
MNZ065>067-074>077-082>085-091>093-071200-
   South Central Minnesota

CITY           SKY/WX    TMP DP  RH WIND       PRES   REMARKS
MANKATO        PTCLDY    36  27  69 W10       29.70S
NEW ULM        CLEAR     36  28  75 W24       29.70R
ST JAMES       CLEAR     36  30  80 W20       29.74R
FAIRMONT       CLEAR     34  25  69 W20       29.74S WCI  22
GLENCOE        PTCLDY    34  31  86 W10G18    29.65S WCI  26
FARIBAULT      CLEAR     34  27  75 SW7       29.68F WCI  28
OWATONNA       CLEAR     30  25  80 SW10      29.69F WCI  21
WASECA         CLEAR     32  28  86 SW10      29.72S WCI  24
ALBERT LEA     CLEAR     34  27  75 W12G17    29.71F WCI  25
$$
MNZ078>079-086>088-094>096-071200-
   Southeast Minnesota

CITY           SKY/WX    TMP DP  RH WIND       PRES   REMARKS
ROCHESTER      CLOUDY    31  26  82 W16       29.69S WCI  20
RED WING       CLEAR     30  27  86 W3        29.65F
STANTON        CLEAR     35  28  75 SW8       29.65F WCI  29
DODGE CENTER   CLOUDY    30  27  86 W12       29.68S WCI  21
WINONA         PTCLDY    36  30  80 CALM      29.71S
AUSTIN         CLOUDY    34  28  80 W8        29.71F WCI  27
PRESTON        PTCLDY    32  26  80 SW15G22   29.71S WCI  22
$$
ABBREVIATIONS USED IN REMARKS
   TC - TEMPERATURES IN CELSIUS
  WCI - WIND CHILL INDEX
   HX - HEAT INDEX
  VSB - VISIBILITY
$$



USA.gov is the U.S. government's official web portal to all federal, state and local government web resources and services.